"Pseudo-MPEC" for ZTF02sM

Created 2019 Mar 17 10:18:22 UT using Find_Orb

Click here for an explanation of pseudo-MPECs

 
 Astrometry: 
     ZTF02sM  C2019 03 14.45331114 43 28.76 +49 05 28.0    ~3EJX 17.24gUNEOCPI41
     ZTF02sM  C2019 03 14.45365814 43 20.82 +49 05 01.8    ~3EJX 17.24gUNEOCPI41
     ZTF02sM  C2019 03 14.46402514 39 31.43 +48 52 05.2    ~3EJ3 17.42gUNEOCPI41
     ZTF02sM  C2019 03 14.46437214 39 23.92 +48 51 39.9    ~3EJ3 17.42gUNEOCPI41
     ZTF02sM  C2019 03 14.49956114 27 23.75 +48 06 14.1    ~3EJ3 17.09gUNEOCPI41
     ZTF02sM  C2019 03 14.49990814 27 17.01 +48 05 46.2    ~3EJ3 17.09gUNEOCPI41
     ZTF02sM KC2019 03 14.95853613 13 47.27 +40 18 41.1    ~3FAI 18.0 GVNEOCPC95
     ZTF02sM KC2019 03 14.96366213 13 17.53 +40 15 13.9    ~3FAI 17.9 GVNEOCPC95
     ZTF02sM KC2019 03 14.96878613 12 48.00 +40 11 47.5    ~3FAI 17.8 GVNEOCPC95
     ZTF02sM  C2019 03 15bVPJBlt*0Ci,D8K6g.f6v^yjiV'4WmPgCT/5AstrometryOmr\,p511
     ZTF02sM  C2019 03 15+5[C4KgE-!+iw_Rg4Ega[M1d^b)]Ghr)fa.S,;.bo9Qmx]Zg(G(=511
     ZTF02sM  C2019 03 15p#SB,s)oLi04QM\M%?-F!.N?\BFnx1!ab7DW=4AQeG$N]A[*wC2%511
     ZTF02sM  C2019 03 15.E-J\,'ytHP9J.;xF74*4W*7KF?WNe?sMi0YJ/Ss:lwbuHy/R3AI511
     ZTF02sM  C2019 03 15k%?iHOs8UF,C/dW=(dP#3G5-fld(q)r@2t9$*_1`\@$TQA6;K9NL511
     ZTF02sM  C2019 03 15wy7osICfN'%9gaYk0fRL7lTctj.irbfKT5y#Xe+:ED[,W'HBmUH_511
     ZTF02sM  C2019 03 15dM*D'?w^RDlaBMnTpBKjaLFcmN@e!Kc(j`fv#0hSpf-$])ZbMAis511
     ZTF02sM  C2019 03 1546op'V\W3GQTp;NUD/=q*,DiQ1c=jy2`ZBClUDlaRYmj4kS+b^l`511
     ZTF02sM  C2019 03 15t:U[NwX@-V2H.('UMoFbFHFjt**XxKmMIKG0[4XC9xi.xJb`B/ch511
     ZTF02sM  C2019 03 156Yx=\$l_R$]I=[l%Zpgt9v7[)redacted;N.A\m1;ENQIFCcy!F[511
     ZTF02sM  C2019 03 152;[mDdU?FH*;nXlqYiZ2jZ4b6_eU#Ugk5=Uj6U9AJaSpX2_mD)M2511
     ZTF02sM  C2019 03 15-F/5Cd%Y?rTi3._l@x_e[fwd0s%rk%x!nu?M.9Fc\3qv%kNV0+.6511
     ZTF02sM  C2019 03 15gFKhnbB.UBq7UB354bSDr8,baoc]66K7;m+;UMJ0ouKr5`,Qm*#,511
     ZTF02sM  C2019 03 15PtVgiIs+YF/Cp*EuV55@(Gxhl6R!A(OQJ?TCJ3C31m=0hNy#j@`7511
     ZTF02sM  C2019 03 15k_rA6B`k?dXwi0nRBy03sp$kDb[/QMnIn_E.PL.5#xyKRQH+a[YW511
     ZTF02sM  C2019 03 15-3gV[LVCto1cLcbwo:EUZYgN^C)Db6WOm8#[XQ*C;V,#-UqS0MgC511
     ZTF02sM  C2019 03 15y[\((N^+c=]m`x#GUeM2_Vn!7+=*[Sfd(KIkh,9N^pu:[xgSdAm@511
     ZTF02sM  C2019 03 15$)(jG0;qV]WI2sa0/9Q$r/xa#0[K99UB),ys\+?HG901#b'4NZOQ511
     ZTF02sM  C2019 03 15Z,h@_]BGVDHI.3K2OjmcrMl#LVZ0YFDeidK_!G`Xk.[u-fJQYgIa511
     ZTF02sM  C2019 03 15n-A3P_85;9uM+]._Xo%(F^oIE(P2q7/?x*SclickODEd__:2Dwt]511
     ZTF02sM  C2019 03 15.nFjDXb5B'3L4bJ4'/sAu=JNnbg^bO,.?*g[?/=S5Qo`ePI8qEUj511
     ZTF02sM  C2019 03 15!4hbBblcC2r`?blhH1?qJjpYZ?CS\nl^([KCl4@Xa[QI'@K89v)G511
     ZTF02sM  C2019 03 15g=apRauO-cJf$+='27R$P)u4PKRpxW?eNZ5[ud0)(4o,sf4+$@dT511
     ZTF02sM  C2019 03 15pb+i'Z$qoy5Y(=nwJgd^MB$7v(Ps[nG+0SukgS\RR;[Ic2sQP1$r511
     ZTF02sM  C2019 03 15-GC9Wvh=A?SsKI.t2unc%YAx#j!OCw]j@v!qXh_wB2HkuB#pjAu$511
     ZTF02sM  C2019 03 15*YnOTD*Kbb9!95gab^^X(Y.,O546yuQm$+kb0-KJ.9OZ@8XJFk2S511
     ZTF02sM  C2019 03 15,qg0#XL3eQ7MpQPKnn]?nNQ!nyv%sek]OHo54S'a#XS]2!t+pH]K511
     ZTF02sM  C2019 03 15;UkWqml,sG$+?WB,37]N.i?V?)u48Q%ILobMid+N)bKiOA[2:cu)511
     ZTF02sM  C2019 03 15W1Z4BPvos`!D=LgFHHYb2TEn_Ghere4f7EQSePVEOPqWh=%6PA^f511
     ZTF02sM KC2019 03 15*;20'bfCaoyaT21BP62ZWi?w`cdE'hOB:#bZJ*Te*.x;*(+p_[myL01
     ZTF02sM KC2019 03 15TBY4@,h`jP8_4tD^6`DrSCpdvPd$RrFehy/cAI-Kam_57DKRBC_?L01
     ZTF02sM  C2019 03 15P:?o(vok_j:lU9Uj+S]u9voa0+B*56#_?yT08x%_:4xJ%)#u@S4=L01
     ZTF02sM  C2019 03 15pK*t0IM4fp9KeMI5,-l''EpxGFp4[d*`HXJr,B`r9yw$F93-_n5+L01
     ZTF02sM KC2019 03 15TG%:J]?vCa\;T58X;9K(1Q5pIIVh,wB.V62mU.7qjRK%E^t8/#8@L01
     ZTF02sM KC2019 03 15E7xAyTX1Gg?^8/kdhjHc(1f@,NHv+SC+kuLDO^VQOi9Z\'$^j,p0L01
     ZTF02sM KC2019 03 15)PONKUrUn(,tXOlKdORhgCu]-V9l+ljhv?pGNiVBKp]lc.VlaDY^L01
     ZTF02sM  C2019 03 15.36134212 48 21.03 +36 40 27.1    ~3FNm 18.33RUNEOCPI41
     ZTF02sM  C2019 03 15.36168912 48 19.94 +36 40 18.0    ~3FNm 18.33RUNEOCPI41
     ZTF02sM  C2019 03 15.39321112 46 46.02 +36 27 10.5    ~3FNm 18.13RUNEOCPI41
     ZTF02sM  C2019 03 15.39355712 46 44.86 +36 27 01.0    ~3FNm 18.13RUNEOCPI41
     ZTF02sM KC2019 03 155V'WRNTOq0qBMhZ?+huw)sVgm'3v8JeHRC!,qU[h?Sdlux1A`WJZ587
     ZTF02sM KC2019 03 15a)C/5fdB7?WY_dw+_v=?=WPAk3L3F*tP']?GH;^As=]nfwj]pa:G587
     ZTF02sM KC2019 03 15=pGwc@forD16\S/S3FHywl\HTQo]74-I@J@FK=clu\x(k,;kToCF587
     ZTF02sM KC2019 03 15s(EwHI=HO41u*`W]hi*GCSjC^5xAO5nW4kY8b'gQmb[Ssvu-B*3g595
     ZTF02sM KC2019 03 16;;=*,QBI2c%%[3xT/s;ioF6NM9T@yo[SAmuj^D_=Zr;4'hOp8OLN595
     ZTF02sM KC2019 03 16[U74P^dud?$@yv[gXJ=(FUj$/25),p8C+h\IcK]$k6UM$3QuomAJ595
     ZTF02sM KC2019 03 160+T-jwi9:jeQnVhI]l6hg,5.0MTxPi::tIHekX:[Cl*T4-kxZG^IH21
     ZTF02sM KC2019 03 16,au[dwFdiXX$$b08J!rH[?,+OT[l!y8ZZiZD28V7n[S$M#FKa?WFH21
     ZTF02sM KC2019 03 16:7Dtq4.oFFK7;`k?hnEh@aaQaVqwq8Pe)t9bGI/GObik\W`[yZvaH21
     ZTF02sM KC2019 03 16Oe-Y:FYm)enXfWG1mYK(X+%sq=jTR2)r?f?vBfY.[kNll9_%eg^JV01
     ZTF02sM KC2019 03 16ph3hbO.'%Pn88))fuPZ4UE!mo%ke[@5I-W17em;/TD8u?BUSxT.kV01
     ZTF02sM KC2019 03 16ieUvC@3b3*$N93r+.kN=Dq-qtqvCG'2g\bd#PLj4+?M72L]:C[@:V01
     ZTF02sM KC2019 03 16;ow(,`Fexplanation/6syJ$rQBd=HGXk(x_Kj'eX9N6cZP/C@(vV01
     ZTF02sM KC2019 03 17.03415212 17 02.84 +30 48 46.7    ~3H4I 19.4 GVNEOCPJ95
     ZTF02sM KC2019 03 17.03696412 17 01.04 +30 48 28.7    ~3H4I 19.8 GVNEOCPJ95
     ZTF02sM KC2019 03 17.04009612 16 59.10 +30 48 10.5    ~3H4I 19.5 GVNEOCPJ95
     ZTF02sM KC2019 03 17.04356712 16 56.81 +30 47 48.6    ~3H4I 19.6 GVNEOCPJ95

Station data:
(511) Haute Provence  (N43.931876 E5.715700)  France.  Observers W.
   Polycarpe, M. Dennefield, W. Thuillot, B. Carry, P. David, S. Bouquillon,
   F. Taris, P. Tanga, M. Delbó, E. Saquet, V. Robert. Measurers W. Thuillot,
   S. Bouquillon, F. Taris, T. Carlucci, C. Barache. 1.20-m f/6 reflector +
   CCD.
(587) Sormano  (N45.882949 E9.229180)  Italy.  Observers F. Manca, A. Testa.
   Measurer F. Manca. 0.5-m + CCD.
(595) Farra d'Isonzo  (N45.915734 E13.525780)  Italy.  Observers L.
   Bittesini, F. Fabris, E. Pettarin, F. Piani. Measurer E. Pettarin. 0.30-m
   f/4.5 reflector + CCD.
(C95) SATINO Remote Observatory, Haute Provence  (N43.932042 E5.712390)
   France.
(H21) Astronomical Research Observatory, Westfield  (N39.483057 W87.968270)
   US/Illinois. 0.76-m f/3.0 astrograph + CCD.
(I41) Palomar Mountain--ZTF  (N33.357340 W116.859780)  US/California. 1.2-m
   f/2.44 Oschin Schmidt + CCD.
(J95) Great Shefford  (N51.474969 W1.447003)  UK.  Observer P. Birtwhistle.
   0.40-m f/6.0 Schmidt-Cassegrain + CCD.
(L01) Višnjan Observatory, Tičan  (N45.290900 E13.749300)  Croatia.
   Observers K. Korlević, E. Pettarin. Measurer E. Pettarin. 1.0-m f/2.9
   reflector + CCD.
(V01) Mountainville Observatory, Alpine  (N40.448904 W111.760890)  US/Utah.

Orbital elements:  ZTF02sM
   Perihelion 2019 Jan 5.892111 +/- 0.00808 TT = 21:24:38 (JD 2458489.392111)
Epoch 2019 Mar 17.0 TT = JDT 2458559.5   Earth MOID: 0.0021   Ve: 0.0630
M  62.97487917 +/- 0.013            (J2000 ecliptic)          AutoNEOCP
n   0.89825667 +/- 9.32e-5          Peri.  264.82927 +/- 0.0006
a   1.06382227 +/- 7.36e-5          Node   171.99935 +/- 0.000051
e   0.3115491 +/- 0.000113          Incl.    7.30282 +/- 0.0028
P   1.10/400.77d           H 27.6   G  0.15   U  6.5  
q 0.73238937 +/- 6.99e-5    Q 1.39525518 +/- 0.000217
From 66 observations 2019 Mar. 14-17; mean residual 1".19
Residuals in arcseconds: 
190314 I41  2.1-  .25+    190315 511  1.6+  1.1+    190315 L01  .72-  .33-    
190314 I41  3.3-  .24-    190315 511  1.6+  1.1+    190315 I41  1.3+  .90-    
190314 I41  2.6-  .90-    190315 511  1.7+  1.3+    190315 I41  .98+  1.3-    
190314 I41  2.3-  .03+    190315 511  1.8+  1.3+    190315 I41  2.3+  .08-    
190314 I41  1.1-  1.2-    190315 511  1.3+  .88+    190315 I41  .50+  .96-    
190314 I41  1.8-  1.7-    190315 511  1.6+  .82+    190315 587  .36-  .62-    
190314 C95  .65-  .31-    190315 511  1.3+  .94+    190315 587  .31-  .48-    
190314 C95  .31-  .50-    190315 511  1.7+  1.2+    190315 587  .01+  .40-    
190314 C95  .68-  .74-    190315 511  .75+  .80+    190315 595  .13-  .09-    
190315 511  1.3+  .94+    190315 511  1.6+  1.1+    190316 595  .03-  .16+    
190315 511  2.3+  1.6+    190315 511  1.2+  1.0+    190316 595  .01+  .15-    
190315 511  1.8+  1.4+    190315 511  1.5+  1.2+    190316 H21  .21-  .00     
190315 511  1.5+  1.0+    190315 511  1.5+  1.1+    190316 H21  .19-  .40-    
190315 511  1.9+  1.5+    190315 511  2.5+  1.8+    190316 H21  .38-  .22-    
190315 511  1.6+  1.2+    190315 511  1.5+  1.2+    190316 V01  1.0-  .69-    
190315 511  1.9+  1.2+    190315 511  1.6+  1.1+    190316 V01  .89-  .96-    
190315 511  1.1+  .91+    190315 L01  1.1-  .56-    190316 V01  .73-  .80-    
190315 511  1.0+  .95+    190315 L01  1.0-  .71-    190316 V01  1.3-  .71-    
190315 511  1.6+  1.2+    190315 L01  1.2-  .40-    190317 J95  .13-  .78+    
190315 511  1.5+  1.4+    190315 L01  .98-  .32-    190317 J95  .09-  .21-    
190315 511  1.6+  1.3+    190315 L01  .90-  .33-    190317 J95  .74+  .57+    
190315 511  2.1+  1.2+    190315 L01  1.1-  .48-    190317 J95  .22-  .27-    

Ephemerides (geocentric):
Date (UTC) HH   RA              Dec         delta   r     elong  mag " sig PA
---- -- -- --  -------------   -----------  ------ ------ -----  --- ---- ---
2019 03 17 10  12 14 18.773   +30 17 02.93  .01943 1.0119 150.4 20.3 .081 168
2019 03 17 11  12 14 03.125   +30 13 42.19  .01966 1.0121 150.5 20.3 .081 167
2019 03 17 12  12 13 47.859   +30 10 25.91  .01989 1.0123 150.6 20.4 .081 167
2019 03 17 13  12 13 32.963   +30 07 13.93  .02013 1.0125 150.6 20.4 .081 167
2019 03 17 14  12 13 18.422   +30 04 06.11  .02036 1.0128 150.7 20.4 .081 167
2019 03 17 15  12 13 04.225   +30 01 02.32  .02059 1.0130 150.7 20.4 .081 166
2019 03 17 16  12 12 50.359   +29 58 02.41  .02083 1.0132 150.8 20.5 .081 166
2019 03 17 17  12 12 36.812   +29 55 06.27  .02106 1.0134 150.8 20.5 .081 166
